Home   Weather   Barrow   Past weeks

Flag for USA Past Weather in Barrow, Alaska, USA — Yesterday and Last 2 Weeks

22 °F

Ice fog.

Feels Like: 12 °F
Forecast: 20 / 28 °F
Wind: 9 mph from Southeast

Location: Post Rogers Memorial Airport

Current Time: Oct 28, 2016 at 8:02:48 AM

Latest Report: Oct 28, 2016 at 6:53 AM

Visibility: 5 mi

Pressure: 29.80 "Hg

Humidity: 85%

Dew Point: 18 °F

Location of BarrowLocation

Past Weather in Barrow — Graph


Barrow Temperature Yesterday

Maximum temperature yesterday: 31 °F (at 2:53 AM)
Minimum temperature yesterday: 16 °F (at 10:53 PM)
Average temperature yesterday: 25 °F

High & Low Weather Summary for the Past Weeks

High34 °F (Oct 13, 6:53 AM)89% (Oct 19, 9:53 AM)30.23 "Hg (Oct 19, 9:53 AM)
Low16 °F (Oct 23, 10:53 PM)51% (Oct 21, 2:53 PM)29.44 "Hg (Oct 26, 2:53 AM)
Average27 °F75%29.88 "Hg
* Reported Oct 13 6:53 AM — Oct 28 6:53 AM, Barrow, Weather by CustomWeather, © 2016

Note: Actual official high and low records may vary slightly from our data, if they occured in-between our weather recording intervals... More about our weather records


Barrow Weather History for the Previous 24 Hours

Scroll right to see more
Time TempWeatherWind HumidityBarometerVisibility
6:53 AM
Fri, Oct 28
22 °FIce fog.9 mph85%29.80 "Hg5 mi
5:53 AM23 °FLow clouds.9 mph85%29.80 "Hg10 mi
4:53 AM22 °FLow clouds.9 mph85%29.80 "Hg9 mi
3:53 AM22 °FLow clouds.8 mph85%29.80 "Hg10 mi
3:00 AM21 °FMostly cloudy.7 mph85%29.80 "Hg10 mi
1:53 AM20 °FPassing clouds.7 mph85%29.81 "Hg10 mi
12:53 AM20 °FPassing clouds.7 mph82%29.80 "Hg10 mi
11:53 PM
Thu, Oct 27
19 °FClear.5 mph85%29.79 "Hg10 mi
10:53 PM16 °FClear.6 mph84%29.78 "Hg10 mi
9:53 PM17 °FClear.6 mph83%29.78 "Hg10 mi
8:57 PM20 °FIce fog.7 mph85%29.77 "Hg3 mi
7:53 PM23 °FIce fog.8 mph88%29.77 "Hg1 mi
6:53 PM22 °FIce fog.6 mph89%29.76 "Hg1 mi
6:04 PM22 °FIce fog.6 mph85%29.76 "Hg1 mi
5:53 PM22 °FIce fog.6 mph89%29.76 "Hg1 mi
4:56 PM24 °FIce fog.9 mph88%29.74 "Hg1 mi
4:53 PM24 °FIce fog.10 mph88%29.74 "Hg1 mi
3:53 PM25 °FIce fog.12 mph88%29.74 "Hg0 mi
3:02 PM27 °FIce fog.12 mph89%29.73 "Hg0 mi
1:53 PM28 °FScattered clouds.12 mph85%29.73 "Hg10 mi
12:53 PM27 °FPartly sunny.8 mph89%29.74 "Hg10 mi
11:53 AM28 °FPartly sunny.9 mph85%29.73 "Hg10 mi
10:53 AM30 °FPartly sunny.13 mph85%29.72 "Hg10 mi
9:53 AM30 °FOvercast.10 mph82%29.72 "Hg10 mi
8:53 AM30 °FPassing clouds.12 mph79%29.72 "Hg10 mi
Weather by CustomWeather, © 2016

See weather overviewHow to use our weather pages